sat.trackr.live / text

‹ back to catalog

STARLINK-4215

NORAD 53007 · 2022-076X

PAYLOAD ACTIVE UNKNOWN

§ Identity

Operator
Country
US
Launch date
2022-07-07
Launch site
AFETR
Launch vehicle
Mass (kg)
RCS (m²)

Purposes: comms

External: N2YO · Heavens-Above · Gunter

§ Orbital elements

Epoch: 2026-09-19T18:27:27.736128Z

Period
93.79 min
Inclination
53.1601°
Eccentricity
0.0001216
Mean motion
15.35402060 rev/d
Perigee alt
458.9 km
Apogee alt
460.6 km
Semi-major
6,837.9 km
B*
5.1234e-5
RAAN
287.8309°
Arg perigee
82.3931°
Mean anomaly
277.7210°
Rev number
23,235

§ Raw data

STARLINK-42151 53007U 22076X   26262.76907102  .00001407  00000+0  51234-4 0  99922 53007  53.1601 287.8309 0001216  82.3931 277.7210 15.35402060232353

JSON: /api/v1/satellites/53007 · /tle

For live sub-satellite position, see the globe view (requires WebGL).

§ Visibility from observer

Set your observer location to see the next 7 days of passes ≥ 10°. The values pass through the URL so the page stays shareable.

No JS? Fill the form by hand. The geolocation button needs JavaScript.